19-02-2023, 00:00:09,    278,    4.2,    7.2,   0.00,   0.00, 1018.5,   83.7, -999.0
19-02-2023, 00:00:19,    245,    4.6,    7.2,   0.00,   0.00, 1018.5,   83.5, -999.0
19-02-2023, 00:00:29,    240,    3.5,    7.2,   0.00,   0.00, 1018.5,   83.5, -999.0
19-02-2023, 00:00:39,    234,    3.6,    7.2,   0.00,   0.00, 1018.5,   83.4, -999.0
19-02-2023, 00:00:49,    264,    3.3,    7.2,   0.00,   0.00, 1018.5,   83.4, -999.0
19-02-2023, 00:00:59,    237,    2.0,    7.2,   0.00,   0.00, 1018.5,   83.3, -999.0
19-02-2023, 00:01:09,    230,    1.2,    7.2,   0.00,   0.00, 1018.5,   83.3, -999.0
19-02-2023, 00:01:19,    242,    2.9,    7.1,   0.00,   0.00, 1018.5,   83.3, -999.0
19-02-2023, 00:01:29,    235,    2.0,    7.2,   0.00,   0.00, 1018.5,   83.3, -999.0
19-02-2023, 00:01:39,    232,    1.4,    7.2,   0.00,   0.00, 1018.5,   83.3, -999.0
19-02-2023, 00:01:49,    254,    2.9,    7.2,   0.00,   0.00, 1018.6,   83.3, -999.0
19-02-2023, 00:01:59,    289,    1.9,    7.2,   0.00,   0.00, 1018.5,   83.2, -999.0
19-02-2023, 00:02:09,    251,    1.3,    7.2,   0.00,   0.00, 1018.6,   83.2, -999.0
19-02-2023, 00:02:19,    255,    0.4,    7.1,   0.00,   0.00, 1018.5,   83.1, -999.0
19-02-2023, 00:02:29,    280,    0.6,    7.2,   0.00,   0.00, 1018.5,   83.2, -999.0
19-02-2023, 00:02:39,    226,    0.8,    7.2,   0.00,   0.00, 1018.5,   83.3, -999.0
19-02-2023, 00:02:49,    248,    1.6,    7.2,   0.00,   0.00, 1018.5,   83.3, -999.0
19-02-2023, 00:02:59,    244,    1.5,    7.3,   0.00,   0.00, 1018.6,   83.3, -999.0
19-02-2023, 00:03:09,    279,    2.1,    7.2,   0.00,   0.00, 1018.6,   83.3, -999.0
19-02-2023, 00:03:19,    266,    2.8,    7.2,   0.00,   0.00, 1018.6,   83.3, -999.0
19-02-2023, 00:03:29,    247,    3.4,    7.1,   0.00,   0.00, 1018.5,   83.3, -999.0
19-02-2023, 00:03:39,    242,    2.6,    7.2,   0.00,   0.00, 1018.6,   83.3, -999.0
19-02-2023, 00:03:49,    229,    1.7,    7.2,   0.00,   0.00, 1018.6,   83.3, -999.0
19-02-2023, 00:03:59,    269,    1.4,    7.2,   0.00,   0.00, 1018.6,   83.3, -999.0
19-02-2023, 00:04:09,    278,    1.4,    7.1,   0.00,   0.00, 1018.5,   83.3, -999.0
19-02-2023, 00:04:19,    257,    1.0,    7.2,   0.00,   0.00, 1018.6,   83.3, -999.0
19-02-2023, 00:04:29,    287,    2.2,    7.2,   0.00,   0.00, 1018.6,   83.3, -999.0
19-02-2023, 00:04:39,    249,    2.5,    7.2,   0.00,   0.00, 1018.6,   83.3, -999.0
19-02-2023, 00:04:48,    241,    2.2,    7.2,   0.00,   0.00, 1018.6,   83.4, -999.0
19-02-2023, 00:04:59,    244,    1.8,    7.2,   0.00,   0.00, 1018.6,   83.4, -999.0
19-02-2023, 00:05:09,    263,    1.8,    7.2,   0.00,   0.00, 1018.6,   83.4, -999.0
19-02-2023, 00:05:18,    233,    2.2,    7.1,   0.00,   0.00, 1018.6,   83.5, -999.0
19-02-2023, 00:05:28,    261,    2.8,    7.1,   0.00,   0.00, 1018.6,   83.6, -999.0
19-02-2023, 00:05:39,    276,    2.5,    7.1,   0.00,   0.00, 1018.6,   83.7, -999.0
19-02-2023, 00:05:49,    263,    1.8,    7.0,   0.00,   0.00, 1018.6,   83.6, -999.0
19-02-2023, 00:05:58,    227,    1.0,    7.1,   0.00,   0.00, 1018.6,   83.7, -999.0
19-02-2023, 00:06:08,    230,    2.1,    7.0,   0.00,   0.00, 1018.6,   83.7, -999.0
19-02-2023, 00:06:19,    250,    1.6,    7.1,   0.00,   0.00, 1018.7,   83.8, -999.0
19-02-2023, 00:06:28,    272,    0.3,    7.1,   0.00,   0.00, 1018.6,   83.8, -999.0
19-02-2023, 00:06:38,    207,    0.9,    7.1,   0.00,   0.00, 1018.6,   83.8, -999.0
19-02-2023, 00:06:48,    259,    1.8,    7.0,   0.00,   0.00, 1018.6,   83.9, -999.0
19-02-2023, 00:06:58,    241,    2.9,    7.1,   0.00,   0.00, 1018.6,   83.9, -999.0
19-02-2023, 00:07:08,    298,    0.6,    7.0,   0.00,   0.00, 1018.6,   83.8, -999.0
19-02-2023, 00:07:18,    231,    2.3,    7.2,   0.00,   0.00, 1018.7,   84.1, -999.0
19-02-2023, 00:07:29,    264,    2.7,    7.1,   0.00,   0.00, 1018.7,   84.0, -999.0
19-02-2023, 00:07:38,    249,    1.2,    7.1,   0.00,   0.00, 1018.7,   83.9, -999.0
19-02-2023, 00:07:48,    238,    1.3,    7.0,   0.00,   0.00, 1018.7,   83.9, -999.0
19-02-2023, 00:07:58,    277,    2.8,    7.0,   0.00,   0.00, 1018.7,   83.8, -999.0
19-02-2023, 00:08:08,    274,    1.4,    7.0,   0.00,   0.00, 1018.8,   83.8, -999.0
19-02-2023, 00:08:18,    279,    2.3,    7.1,   0.00,   0.00, 1018.8,   83.9, -999.0
19-02-2023, 00:08:28,    281,    2.1,    7.1,   0.00,   0.00, 1018.8,   83.8, -999.0
19-02-2023, 00:08:38,    283,    1.9,    7.1,   0.00,   0.00, 1018.8,   83.8, -999.0
19-02-2023, 00:08:48,    279,    0.7,    7.1,   0.00,   0.00, 1018.8,   83.8, -999.0
19-02-2023, 00:08:58,    253,    2.5,    7.0,   0.00,   0.00, 1018.8,   84.0, -999.0
19-02-2023, 00:09:08,    267,    2.8,    6.9,   0.00,   0.00, 1018.8,   84.0, -999.0
19-02-2023, 00:09:18,    232,    2.7,    7.1,   0.00,   0.00, 1018.8,   83.9, -999.0
19-02-2023, 00:09:28,    242,    1.1,    7.1,   0.00,   0.00, 1018.8,   84.0, -999.0
19-02-2023, 00:09:38,    241,    0.0,    7.0,   0.00,   0.00, 1018.7,   83.9, -999.0
19-02-2023, 00:09:48,    242,    0.2,    6.9,   0.00,   0.00, 1018.7,   83.9, -999.0
19-02-2023, 00:09:58,    247,    1.2,    7.1,   0.00,   0.00, 1018.8,   84.1, -999.0
19-02-2023, 00:10:08,    248,    0.4,    7.1,   0.00,   0.00, 1018.7,   84.1, -999.0
19-02-2023, 00:10:18,    256,    1.0,    7.1,   0.00,   0.00, 1018.8,   84.2, -999.0
19-02-2023, 00:10:28,    261,    1.0,    7.1,   0.00,   0.00, 1018.8,   84.2, -999.0
19-02-2023, 00:10:38,    262,    0.1,    7.0,   0.00,   0.00, 1018.7,   83.9, -999.0
19-02-2023, 00:10:48,    334,    0.2,    7.0,   0.00,   0.00, 1018.7,   83.9, -999.0
19-02-2023, 00:10:58,    242,    0.3,    6.9,   0.00,   0.00, 1018.8,   84.2, -999.0
19-02-2023, 00:11:08,    236,    0.3,    7.0,   0.00,   0.00, 1018.7,   84.1, -999.0
19-02-2023, 00:11:18,    255,    1.3,    6.9,   0.00,   0.00, 1018.7,   84.1, -999.0
19-02-2023, 00:11:28,    253,    3.1,    7.0,   0.00,   0.00, 1018.8,   84.2, -999.0
19-02-2023, 00:11:38,    289,    2.4,    7.0,   0.00,   0.00, 1018.8,   84.3, -999.0
19-02-2023, 00:11:48,    275,    0.3,    7.0,   0.00,   0.00, 1018.7,   84.1, -999.0
19-02-2023, 00:11:58,    226,    1.5,    7.0,   0.00,   0.00, 1018.8,   84.4, -999.0
19-02-2023, 00:12:08,    241,    3.1,    7.0,   0.00,   0.00, 1018.8,   84.3, -999.0
19-02-2023, 00:12:18,    255,    1.1,    7.1,   0.00,   0.00, 1018.8,   84.4, -999.0
19-02-2023, 00:12:28,    257,    0.7,    7.0,   0.00,   0.00, 1018.8,   84.4, -999.0
19-02-2023, 00:12:38,    254,    1.4,    7.0,   0.00,   0.00, 1018.8,   84.6, -999.0
19-02-2023, 00:12:48,    235,    0.9,    7.0,   0.00,   0.00, 1018.8,   84.6, -999.0
19-02-2023, 00:12:58,    235,    0.5,    7.0,   0.00,   0.00, 1018.8,   84.5, -999.0
19-02-2023, 00:13:07,    225,    0.7,    7.0,   0.00,   0.00, 1018.8,   84.5, -999.0
19-02-2023, 00:13:18,    241,    0.8,    7.1,   0.00,   0.00, 1018.8,   84.5, -999.0
19-02-2023, 00:13:28,    251,    1.6,    7.1,   0.00,   0.00, 1018.8,   84.6, -999.0
19-02-2023, 00:13:37,    251,    0.8,    7.1,   0.00,   0.00, 1018.8,   84.6, -999.0
19-02-2023, 00:13:48,    251,    0.5,    7.1,   0.00,   0.00, 1018.8,   84.4, -999.0
19-02-2023, 00:13:58,    229,    1.2,    7.0,   0.00,   0.00, 1018.8,   84.5, -999.0
19-02-2023, 00:14:08,    237,    2.2,    7.0,   0.00,   0.00, 1018.8,   84.5, -999.0
19-02-2023, 00:14:17,    249,    1.4,    7.0,   0.00,   0.00, 1018.8,   84.5, -999.0
19-02-2023, 00:14:28,    245,    2.1,    7.0,   0.00,   0.00, 1018.8,   84.4, -999.0
19-02-2023, 00:14:38,    248,    1.3,    7.1,   0.00,   0.00, 1018.8,   84.3, -999.0
19-02-2023, 00:14:47,    248,    0.2,    7.1,   0.00,   0.00, 1018.7,   84.2, -999.0
19-02-2023, 00:14:57,    243,    0.0,    7.0,   0.00,   0.00, 1018.6,   83.9, -999.0
19-02-2023, 00:15:08,    248,    0.0,    7.0,   0.00,   0.00, 1018.6,   83.9, -999.0
19-02-2023, 00:15:17,    248,    0.0,    6.9,   0.00,   0.00, 1018.7,   84.0, -999.0
19-02-2023, 00:15:27,    248,    0.0,    6.9,   0.00,   0.00, 1018.6,   83.9, -999.0
19-02-2023, 00:15:37,    222,    0.4,    7.0,   0.00,   0.00, 1018.7,   84.2, -999.0
19-02-2023, 00:15:48,    228,    1.1,    7.1,   0.00,   0.00, 1018.8,   84.5, -999.0
19-02-2023, 00:15:57,    230,    0.1,    7.0,   0.00,   0.00, 1018.7,   84.4, -999.0
19-02-2023, 00:16:07,    229,    0.7,    7.0,   0.00,   0.00, 1018.7,   84.5, -999.0
19-02-2023, 00:16:17,    231,    0.6,    7.1,   0.00,   0.00, 1018.8,   84.5, -999.0
19-02-2023, 00:16:27,    244,    1.0,    7.0,   0.00,   0.00, 1018.7,   84.3, -999.0
19-02-2023, 00:16:37,    249,    3.4,    7.1,   0.00,   0.00, 1018.8,   84.4, -999.0
19-02-2023, 00:16:47,    253,    1.9,    7.0,   0.00,   0.00, 1018.8,   84.4, -999.0
19-02-2023, 00:16:57,    295,    0.9,    7.0,   0.00,   0.00, 1018.8,   84.4, -999.0
19-02-2023, 00:17:07,    272,    0.7,    7.0,   0.00,   0.00, 1018.8,   84.5, -999.0
19-02-2023, 00:17:17,    276,    2.2,    7.0,   0.00,   0.00, 1018.8,   84.5, -999.0
19-02-2023, 00:17:27,    273,    1.9,    7.0,   0.00,   0.00, 1018.8,   84.6, -999.0
19-02-2023, 00:17:37,    245,    2.2,    7.0,   0.00,   0.00, 1018.8,   84.6, -999.0
19-02-2023, 00:17:47,    245,    1.1,    7.0,   0.00,   0.00, 1018.8,   84.6, -999.0
19-02-2023, 00:17:57,    231,    1.8,    6.9,   0.00,   0.00, 1018.8,   84.7, -999.0
19-02-2023, 00:18:07,    260,    3.2,    6.9,   0.00,   0.00, 1018.8,   84.7, -999.0
19-02-2023, 00:18:17,    235,    2.2,    7.0,   0.00,   0.00, 1018.8,   84.7, -999.0
19-02-2023, 00:18:27,    230,    2.8,    7.0,   0.00,   0.00, 1018.8,   84.7, -999.0
19-02-2023, 00:18:37,    243,    3.7,    7.0,   0.00,   0.00, 1018.8,   84.9, -999.0
19-02-2023, 00:18:47,    256,    3.7,    7.0,   0.00,   0.00, 1018.8,   85.0, -999.0
19-02-2023, 00:18:57,    291,    1.9,    6.9,   0.00,   0.00, 1018.8,   84.7, -999.0
19-02-2023, 00:19:07,    293,    0.4,    7.0,   0.00,   0.00, 1018.8,   84.4, -999.0
19-02-2023, 00:19:17,    292,    0.0,    6.9,   0.00,   0.00, 1018.8,   84.0, -999.0
19-02-2023, 00:19:27,    293,    0.4,    7.0,   0.00,   0.00, 1018.8,   84.1, -999.0
19-02-2023, 00:19:37,    260,    1.3,    7.0,   0.00,   0.00, 1018.8,   84.2, -999.0
19-02-2023, 00:19:47,    267,    3.0,    7.0,   0.00,   0.00, 1018.8,   84.0, -999.0
19-02-2023, 00:19:57,    268,    1.9,    7.0,   0.00,   0.00, 1018.8,   83.9, -999.0
19-02-2023, 00:20:07,    302,    1.9,    6.9,   0.00,   0.00, 1018.8,   83.7, -999.0
19-02-2023, 00:20:17,    249,    1.1,    7.0,   0.00,   0.00, 1018.8,   83.3, -999.0
19-02-2023, 00:20:27,    248,    1.1,    7.0,   0.00,   0.00, 1018.9,   83.3, -999.0
19-02-2023, 00:20:37,    248,    0.3,    7.0,   0.00,   0.00, 1018.8,   83.3, -999.0
19-02-2023, 00:20:47,    236,    0.5,    7.0,   0.00,   0.00, 1018.8,   83.4, -999.0
19-02-2023, 00:20:57,    237,    0.5,    7.0,   0.00,   0.00, 1018.8,   83.4, -999.0
19-02-2023, 00:21:07,    258,    0.7,    6.9,   0.00,   0.00, 1018.8,   83.4, -999.0
19-02-2023, 00:21:16,    243,    2.7,    7.0,   0.00,   0.00, 1018.8,   83.7, -999.0
19-02-2023, 00:21:27,    287,    2.2,    7.0,   0.00,   0.00, 1018.9,   83.7, -999.0
19-02-2023, 00:21:37,    257,    2.5,    7.0,   0.00,   0.00, 1018.9,   83.7, -999.0
19-02-2023, 00:21:47,    269,    3.4,    7.0,   0.00,   0.00, 1018.9,   83.7, -999.0
19-02-2023, 00:21:56,    250,    2.5,    7.0,   0.00,   0.00, 1018.9,   83.7, -999.0
19-02-2023, 00:22:07,    280,    3.4,    7.0,   0.00,   0.00, 1018.9,   83.6, -999.0
19-02-2023, 00:22:17,    283,    2.3,    6.9,   0.00,   0.00, 1018.9,   83.6, -999.0
19-02-2023, 00:22:26,    212,    1.5,    7.0,   0.00,   0.00, 1018.9,   83.7, -999.0
19-02-2023, 00:22:36,    255,    1.1,    7.0,   0.00,   0.00, 1018.9,   83.8, -999.0
19-02-2023, 00:22:47,    261,    1.7,    6.9,   0.00,   0.00, 1019.0,   83.9, -999.0
19-02-2023, 00:22:56,    276,    0.9,    7.0,   0.00,   0.00, 1018.9,   83.9, -999.0
19-02-2023, 00:23:06,    275,    0.6,    6.9,   0.00,   0.00, 1018.9,   83.9, -999.0
19-02-2023, 00:23:17,    275,    0.3,    6.9,   0.00,   0.00, 1018.9,   83.9, -999.0
19-02-2023, 00:23:27,    269,    0.2,    6.9,   0.00,   0.00, 1018.9,   84.1, -999.0
19-02-2023, 00:23:36,    269,    0.8,    6.9,   0.00,   0.00, 1018.9,   84.1, -999.0
19-02-2023, 00:23:46,    270,    0.2,    6.8,   0.00,   0.00, 1018.9,   84.0, -999.0
19-02-2023, 00:23:57,    292,    0.8,    6.9,   0.00,   0.00, 1018.9,   84.2, -999.0
19-02-2023, 00:24:06,    295,    1.4,    6.9,   0.00,   0.00, 1019.0,   84.3, -999.0
19-02-2023, 00:24:16,    241,    0.4,    6.9,   0.00,   0.00, 1018.9,   84.2, -999.0
19-02-2023, 00:24:26,    239,    0.0,    6.9,   0.00,   0.00, 1018.9,   84.2, -999.0
19-02-2023, 00:24:36,    238,    0.0,    6.9,   0.00,   0.00, 1018.8,   84.1, -999.0
19-02-2023, 00:24:46,    238,    0.0,    6.8,   0.00,   0.00, 1018.8,   84.1, -999.0
19-02-2023, 00:24:56,    239,    0.0,    6.8,   0.00,   0.00, 1018.8,   84.0, -999.0
19-02-2023, 00:25:06,    241,    0.5,    6.9,   0.00,   0.00, 1018.9,   84.3, -999.0
19-02-2023, 00:25:16,    244,    0.8,    7.0,   0.00,   0.00, 1019.0,   84.4, -999.0
19-02-2023, 00:25:26,    253,    1.2,    6.9,   0.00,   0.00, 1018.9,   84.4, -999.0
19-02-2023, 00:25:36,    239,    2.0,    6.9,   0.00,   0.00, 1019.0,   84.4, -999.0
19-02-2023, 00:25:46,    238,    0.9,    6.8,   0.00,   0.00, 1019.0,   84.4, -999.0
19-02-2023, 00:25:56,    217,    0.2,    6.9,   0.00,   0.00, 1018.9,   84.2, -999.0
19-02-2023, 00:26:06,    220,    0.7,    6.9,   0.00,   0.00, 1019.0,   84.6, -999.0
19-02-2023, 00:26:16,    223,    0.3,    6.9,   0.00,   0.00, 1018.9,   84.5, -999.0
19-02-2023, 00:26:26,    237,    0.2,    6.9,   0.00,   0.00, 1018.9,   84.5, -999.0
19-02-2023, 00:26:36,    256,    1.1,    6.9,   0.00,   0.00, 1019.0,   84.6, -999.0
19-02-2023, 00:26:46,    243,    3.0,    6.9,   0.00,   0.00, 1019.0,   84.5, -999.0
19-02-2023, 00:26:56,    261,    1.8,    6.9,   0.00,   0.00, 1019.0,   84.3, -999.0
19-02-2023, 00:27:06,    268,    1.9,    6.9,   0.00,   0.00, 1019.0,   84.1, -999.0
19-02-2023, 00:27:16,    265,    0.6,    6.8,   0.00,   0.00, 1019.0,   83.9, -999.0
19-02-2023, 00:27:26,    262,    0.5,    6.9,   0.00,   0.00, 1019.0,   84.0, -999.0
19-02-2023, 00:27:36,    261,    0.5,    6.9,   0.00,   0.00, 1019.0,   84.0, -999.0
19-02-2023, 00:27:46,    261,    0.1,    6.8,   0.00,   0.00, 1018.9,   83.8, -999.0
19-02-2023, 00:27:56,    264,    0.5,    6.8,   0.00,   0.00, 1018.9,   83.9, -999.0
19-02-2023, 00:28:06,    263,    0.7,    6.8,   0.00,   0.00, 1018.9,   84.0, -999.0
19-02-2023, 00:28:16,    259,    0.5,    6.8,   0.00,   0.00, 1019.0,   84.1, -999.0
19-02-2023, 00:28:26,    286,    0.7,    6.9,   0.00,   0.00, 1018.9,   84.1, -999.0
19-02-2023, 00:28:36,    235,    1.7,    6.8,   0.00,   0.00, 1019.0,   84.0, -999.0
19-02-2023, 00:28:46,    234,    0.9,    6.9,   0.00,   0.00, 1018.9,   84.0, -999.0
19-02-2023, 00:28:56,    245,    1.1,    6.9,   0.00,   0.00, 1019.0,   83.9, -999.0
19-02-2023, 00:29:06,    248,    1.7,    6.9,   0.00,   0.00, 1019.0,   83.9, -999.0
19-02-2023, 00:29:16,    248,    1.4,    6.8,   0.00,   0.00, 1019.0,   83.9, -999.0
19-02-2023, 00:29:26,    257,    1.1,    6.9,   0.00,   0.00, 1019.0,   84.0, -999.0
19-02-2023, 00:29:36,    257,    0.5,    6.9,   0.00,   0.00, 1018.9,   83.9, -999.0
19-02-2023, 00:29:46,    258,    0.5,    6.9,   0.00,   0.00, 1018.9,   83.8, -999.0
19-02-2023, 00:29:56,    258,    0.0,    6.8,   0.00,   0.00, 1018.8,   83.5, -999.0
19-02-2023, 00:30:05,    258,    0.2,    6.8,   0.00,   0.00, 1018.9,   83.7, -999.0
19-02-2023, 00:30:16,    254,    0.4,    6.8,   0.00,   0.00, 1018.9,   83.7, -999.0
19-02-2023, 00:30:26,    254,    0.2,    6.8,   0.00,   0.00, 1018.9,   83.5, -999.0
19-02-2023, 00:30:36,    254,    0.0,    6.7,   0.00,   0.00, 1018.8,   83.4, -999.0
19-02-2023, 00:30:45,    260,    0.5,    6.8,   0.00,   0.00, 1018.9,   83.4, -999.0
19-02-2023, 00:30:56,    248,    3.0,    6.8,   0.00,   0.00, 1018.9,   83.7, -999.0
19-02-2023, 00:31:06,    248,    0.8,    6.8,   0.00,   0.00, 1018.9,   83.6, -999.0
19-02-2023, 00:31:15,    249,    0.6,    6.8,   0.00,   0.00, 1018.9,   83.6, -999.0
19-02-2023, 00:31:25,    249,    0.4,    6.8,   0.00,   0.00, 1018.9,   83.4, -999.0
19-02-2023, 00:31:36,    247,    1.0,    6.8,   0.00,   0.00, 1018.9,   83.5, -999.0
19-02-2023, 00:31:45,    241,    1.8,    6.8,   0.00,   0.00, 1018.9,   83.7, -999.0
19-02-2023, 00:31:55,    239,    0.5,    6.8,   0.00,   0.00, 1018.8,   83.6, -999.0
19-02-2023, 00:32:06,    241,    1.0,    6.8,   0.00,   0.00, 1018.8,   83.7, -999.0
19-02-2023, 00:32:16,    243,    1.0,    6.8,   0.00,   0.00, 1018.9,   83.7, -999.0
19-02-2023, 00:32:25,    279,    1.0,    6.8,   0.00,   0.00, 1018.9,   83.7, -999.0
19-02-2023, 00:32:35,    239,    1.4,    6.8,   0.00,   0.00, 1018.9,   83.6, -999.0
19-02-2023, 00:32:46,    239,    2.0,    6.8,   0.00,   0.00, 1019.0,   83.4, -999.0
19-02-2023, 00:32:55,    239,    0.3,    6.9,   0.00,   0.00, 1018.9,   83.3, -999.0
19-02-2023, 00:33:05,    253,    2.1,    6.8,   0.00,   0.00, 1018.9,   83.4, -999.0
19-02-2023, 00:33:15,    242,    1.5,    6.9,   0.00,   0.00, 1019.0,   83.4, -999.0
19-02-2023, 00:33:25,    232,    1.3,    6.9,   0.00,   0.00, 1018.9,   83.3, -999.0
19-02-2023, 00:33:35,    233,    1.6,    6.9,   0.00,   0.00, 1018.9,   83.3, -999.0
19-02-2023, 00:33:45,    234,    1.0,    6.9,   0.00,   0.00, 1018.9,   83.1, -999.0
19-02-2023, 00:33:55,    235,    1.0,    6.9,   0.00,   0.00, 1018.9,   82.9, -999.0
19-02-2023, 00:34:05,    238,    0.6,    6.8,   0.00,   0.00, 1018.9,   82.8, -999.0
19-02-2023, 00:34:15,    245,    0.9,    6.8,   0.00,   0.00, 1018.9,   82.7, -999.0
19-02-2023, 00:34:25,    241,    3.3,    6.9,   0.00,   0.00, 1019.0,   82.6, -999.0
19-02-2023, 00:34:35,    224,    2.0,    6.9,   0.00,   0.00, 1018.9,   82.3, -999.0
19-02-2023, 00:34:45,    278,    1.8,    6.9,   0.00,   0.00, 1018.9,   82.2, -999.0
19-02-2023, 00:34:55,    269,    3.8,    6.9,   0.00,   0.00, 1019.0,   82.1, -999.0
19-02-2023, 00:35:05,    261,    2.9,    6.9,   0.00,   0.00, 1018.9,   81.9, -999.0
19-02-2023, 00:35:15,    275,    3.7,    6.9,   0.00,   0.00, 1019.0,   81.7, -999.0
19-02-2023, 00:35:25,    253,    2.3,    6.9,   0.00,   0.00, 1018.9,   81.4, -999.0
19-02-2023, 00:35:35,    243,    3.6,    6.9,   0.00,   0.00, 1018.9,   81.0, -999.0
19-02-2023, 00:35:45,    277,    4.3,    6.9,   0.00,   0.00, 1018.9,   80.7, -999.0
19-02-2023, 00:35:55,    245,    3.3,    6.9,   0.00,   0.00, 1018.9,   80.0, -999.0
19-02-2023, 00:36:05,    263,    1.8,    7.0,   0.00,   0.00, 1018.9,   79.5, -999.0
19-02-2023, 00:36:15,    289,    4.6,    7.0,   0.00,   0.00, 1018.8,   79.4, -999.0
19-02-2023, 00:36:25,    242,    2.6,    7.0,   0.00,   0.00, 1018.9,   78.9, -999.0
19-02-2023, 00:36:35,    238,    1.4,    7.0,   0.00,   0.00, 1018.9,   78.5, -999.0
19-02-2023, 00:36:45,    238,    0.2,    7.0,   0.00,   0.00, 1018.8,   78.3, -999.0
19-02-2023, 00:36:55,    319,    0.3,    7.0,   0.00,   0.00, 1018.9,   78.4, -999.0
19-02-2023, 00:37:05,    248,    3.0,    7.0,   0.00,   0.00, 1018.9,   78.3, -999.0
19-02-2023, 00:37:15,    272,    3.0,    7.1,   0.00,   0.00, 1018.9,   78.0, -999.0
19-02-2023, 00:37:25,    267,    3.4,    7.0,   0.00,   0.00, 1018.9,   77.5, -999.0
19-02-2023, 00:37:35,    299,    1.4,    7.0,   0.00,   0.00, 1018.9,   77.3, -999.0
19-02-2023, 00:37:45,    244,    1.3,    7.0,   0.00,   0.00, 1018.9,   76.9, -999.0
19-02-2023, 00:37:55,    326,    1.4,    7.1,   0.00,   0.00, 1018.9,   76.7, -999.0
19-02-2023, 00:38:05,    287,    1.0,    7.0,   0.00,   0.00, 1018.9,   76.4, -999.0
19-02-2023, 00:38:15,    272,    1.0,    7.1,   0.00,   0.00, 1019.0,   76.4, -999.0
19-02-2023, 00:38:25,    267,    1.9,    7.0,   0.00,   0.00, 1019.0,   76.3, -999.0
19-02-2023, 00:38:35,    229,    2.1,    7.1,   0.00,   0.00, 1018.9,   76.3, -999.0
19-02-2023, 00:38:45,    239,    2.0,    7.1,   0.00,   0.00, 1018.9,   76.4, -999.0
19-02-2023, 00:38:54,    252,    1.5,    7.1,   0.00,   0.00, 1018.9,   76.5, -999.0
19-02-2023, 00:39:05,    279,    1.6,    7.1,   0.00,   0.00, 1018.9,   76.6, -999.0
19-02-2023, 00:39:15,    243,    1.8,    7.0,   0.00,   0.00, 1018.9,   76.7, -999.0
19-02-2023, 00:39:24,    240,    1.8,    7.0,   0.00,   0.00, 1018.9,   76.8, -999.0
19-02-2023, 00:39:34,    243,    2.1,    7.1,   0.00,   0.00, 1018.9,   76.9, -999.0
19-02-2023, 00:39:45,    244,    0.7,    7.1,   0.00,   0.00, 1018.9,   77.0, -999.0
19-02-2023, 00:39:55,    244,    1.1,    7.1,   0.00,   0.00, 1018.9,   77.1, -999.0
19-02-2023, 00:40:04,    245,    0.7,    7.0,   0.00,   0.00, 1018.9,   77.2, -999.0
19-02-2023, 00:40:15,    245,    0.0,    7.0,   0.00,   0.00, 1018.8,   77.0, -999.0
19-02-2023, 00:40:25,    245,    0.0,    7.0,   0.00,   0.00, 1018.8,   76.9, -999.0
19-02-2023, 00:40:34,    245,    0.0,    7.0,   0.00,   0.00, 1018.8,   76.9, -999.0
19-02-2023, 00:40:44,    246,    0.2,    7.0,   0.00,   0.00, 1018.9,   77.2, -999.0
19-02-2023, 00:40:55,    243,    0.6,    6.9,   0.00,   0.00, 1018.9,   77.3, -999.0
19-02-2023, 00:41:04,    298,    1.9,    7.0,   0.00,   0.00, 1019.0,   77.4, -999.0
19-02-2023, 00:41:14,    285,    0.4,    7.0,   0.00,   0.00, 1018.9,   77.3, -999.0
19-02-2023, 00:41:24,    285,    0.5,    6.9,   0.00,   0.00, 1018.9,   77.3, -999.0
19-02-2023, 00:41:35,    283,    0.9,    7.0,   0.00,   0.00, 1019.0,   77.4, -999.0
19-02-2023, 00:41:44,    269,    1.5,    7.0,   0.00,   0.00, 1018.9,   77.3, -999.0
19-02-2023, 00:41:54,    280,    0.8,    7.0,   0.00,   0.00, 1019.0,   77.4, -999.0
19-02-2023, 00:42:04,    280,    0.2,    6.9,   0.00,   0.00, 1018.9,   77.4, -999.0
19-02-2023, 00:42:14,    280,    0.5,    6.9,   0.00,   0.00, 1018.9,   77.5, -999.0
19-02-2023, 00:42:24,    279,    0.0,    6.8,   0.00,   0.00, 1018.9,   77.3, -999.0
19-02-2023, 00:42:34,    279,    0.3,    6.9,   0.00,   0.00, 1018.9,   77.6, -999.0
19-02-2023, 00:42:44,    279,    0.0,    6.8,   0.00,   0.00, 1018.9,   77.4, -999.0
19-02-2023, 00:42:54,    279,    0.1,    6.8,   0.00,   0.00, 1018.9,   77.5, -999.0
19-02-2023, 00:43:04,    277,    0.1,    6.8,   0.00,   0.00, 1018.9,   77.6, -999.0
19-02-2023, 00:43:14,    276,    0.8,    6.9,   0.00,   0.00, 1019.0,   77.9, -999.0
19-02-2023, 00:43:24,    276,    0.6,    6.9,   0.00,   0.00, 1019.0,   77.9, -999.0
19-02-2023, 00:43:34,    276,    0.4,    6.9,   0.00,   0.00, 1018.9,   77.9, -999.0
19-02-2023, 00:43:44,    275,    0.0,    6.8,   0.00,   0.00, 1018.9,   77.7, -999.0
19-02-2023, 00:43:54,    269,    0.0,    6.8,   0.00,   0.00, 1018.9,   77.9, -999.0
19-02-2023, 00:44:04,    249,    1.3,    6.9,   0.00,   0.00, 1019.0,   78.2, -999.0
19-02-2023, 00:44:14,    246,    1.2,    6.8,   0.00,   0.00, 1019.0,   78.3, -999.0
19-02-2023, 00:44:24,    246,    0.4,    6.8,   0.00,   0.00, 1019.0,   78.4, -999.0
19-02-2023, 00:44:34,    245,    0.0,    6.7,   0.00,   0.00, 1018.9,   78.2, -999.0
19-02-2023, 00:44:44,    246,    0.0,    6.7,   0.00,   0.00, 1018.9,   78.2, -999.0
19-02-2023, 00:44:54,    245,    0.0,    6.8,   0.00,   0.00, 1018.9,   78.4, -999.0
19-02-2023, 00:45:04,    246,    0.0,    6.8,   0.00,   0.00, 1018.9,   78.2, -999.0
19-02-2023, 00:45:14,    246,    0.0,    6.7,   0.00,   0.00, 1018.9,   78.3, -999.0
19-02-2023, 00:45:24,    246,    0.0,    6.7,   0.00,   0.00, 1018.8,   78.4, -999.0
19-02-2023, 00:45:34,    247,    0.0,    6.7,   0.00,   0.00, 1018.9,   78.4, -999.0
19-02-2023, 00:45:44,    247,    0.1,    6.7,   0.00,   0.00, 1018.9,   78.6, -999.0
19-02-2023, 00:45:54,    247,    0.3,    6.8,   0.00,   0.00, 1019.0,   78.6, -999.0
19-02-2023, 00:46:04,    247,    0.4,    6.8,   0.00,   0.00, 1019.0,   78.8, -999.0
19-02-2023, 00:46:14,    247,    0.0,    6.7,   0.00,   0.00, 1018.9,   78.5, -999.0
19-02-2023, 00:46:24,    247,    0.0,    6.7,   0.00,   0.00, 1018.9,   78.5, -999.0
19-02-2023, 00:46:34,    248,    0.0,    6.7,   0.00,   0.00, 1018.9,   78.5, -999.0
19-02-2023, 00:46:44,    288,    0.2,    6.7,   0.00,   0.00, 1019.0,   78.8, -999.0
19-02-2023, 00:46:54,    261,    1.5,    6.7,   0.00,   0.00, 1019.0,   79.0, -999.0